CW7710 Weather Reports


Display with metric or nautical units.
time (UTC)temp
F
wind
direction
speed
MPH
gust
MPH
rain 1hr
in
rain 24hr
in
rain mn
in
humidity
%
barometer
mb
20260901063335 52 84 0.0 0.0 0.00 0.00 0.00 75 1016.0
20260901062339 52 84 1.0 0.0 0.00 0.00 0.00 74 1015.9
20260901061346 52 208 1.0 0.0 0.00 0.00 0.00 73 1016.1
20260901060328 53 156 0.0 0.0 0.00 0.00 0.00 72 1015.8
20260901055331 53 156 0.0 0.0 0.00 0.00 0.00 72 1015.2
20260901054337 54 155 1.0 0.0 0.00 0.00 0.00 71 1015.4
20260901053339 54 155 0.0 0.0 0.00 0.00 0.00 71 1015.4
20260901052327 54 155 1.0 0.0 0.00 0.00 0.00 69 1015.4
20260901051350 55 156 2.0 0.0 0.00 0.00 0.00 67 1016.0
20260901050353 56 204 3.0 0.0 0.00 0.00 0.00 65 1016.1
20260901045336 57 133 5.0 0.0 0.00 0.00 0.00 64 1015.3
20260901044340 58 125 4.0 0.0 0.00 0.00 0.00 64 1016.0
20260901043328 56 100 4.0 0.0 0.00 0.00 0.00 66 1015.5
20260901042330 55 90 3.0 0.0 0.00 0.00 0.00 66 1016.0
20260901041333 56 26 5.0 0.0 0.00 0.00 0.00 63 1015.8
20260901040339 59 28 3.0 0.0 0.00 0.00 0.00 56 1016.4
20260901035347 60 98 2.0 0.0 0.00 0.00 0.00 54 1016.2
20260901034329 59 100 3.0 0.0 0.00 0.00 0.00 54 1016.1
20260901033352 59 176 3.0 0.0 0.00 0.00 0.00 56 1015.9
20260901032337 60 195 4.0 0.0 0.00 0.00 0.00 53 1015.9
20260901031400 61 190 3.0 0.0 0.00 0.00 0.00 50 1015.6
20260901030326 65 113 0.0 0.0 0.00 0.00 0.00 45 1016.9
20260901025329 66 113 1.0 0.0 0.00 0.00 0.00 43 1015.8
20260901024332 66 63 0.0 0.0 0.00 0.00 0.00 42 1015.8
20260901023336 66 55 1.0 0.0 0.00 0.00 0.00 43 1015.8
20260901022329 67 171 5.0 0.0 0.00 0.00 0.00 39 1015.7
20260901021336 67 191 7.0 0.0 0.00 0.00 0.00 41 1015.6
20260901020339 69 190 8.0 0.0 0.00 0.00 0.00 40 1015.4
20260901015341 70 190 5.0 0.0 0.00 0.00 0.00 40 1015.3
20260901014327 73 191 5.0 0.0 0.00 0.00 0.00 36 1014.6
20260901013330 76 176 5.0 0.0 0.00 0.00 0.00 33 1015.4
20260901012333 78 166 1.0 0.0 0.00 0.00 0.00 27 1015.1
20260901011336 79 255 1.0 0.0 0.00 0.00 0.00 26 1015.2
20260901010359 79 255 2.0 0.0 0.00 0.00 0.00 23 1015.2
20260901005405 81 283 1.0 0.0 0.00 0.00 0.00 23 1015.5
20260901004326 80 269 1.0 0.0 0.00 0.00 0.00 22 1015.6
20260901003329 80 290 2.0 0.0 0.00 0.00 0.00 23 1015.6
20260901002333 80 312 3.0 0.0 0.00 0.00 0.00 22 1015.7
20260901001336 80 311 3.0 0.0 0.00 0.00 0.00 22 1015.7
20260901000344 80 307 4.0 0.0 0.00 0.00 0.00 23 1015.8
20260831235326 80 306 3.0 0.0 0.00 0.00 0.00 22 1016.0
20260831234329 80 277 3.0 0.0 0.00 0.00 0.00 22 1016.1
20260831233335 79 304 4.0 0.0 0.00 0.00 0.00 22 1016.2
20260831232343 79 314 5.0 0.0 0.00 0.00 0.00 22 1016.3
20260831231326 80 5 5.0 0.0 0.00 0.00 0.00 21 1016.4
20260831230333 79 323 4.0 0.0 0.00 0.00 0.00 21 1016.5
20260831225336 79 325 5.0 0.0 0.00 0.00 0.00 23 1016.3
20260831224329 79 336 6.0 0.0 0.00 0.00 0.00 22 1016.4
20260831223331 80 329 3.0 0.0 0.00 0.00 0.00 22 1016.5
20260831222334 80 7 3.0 0.0 0.00 0.00 0.00 23 1016.5
20260831221338 79 340 4.0 0.0 0.00 0.00 0.00 22 1016.6
20260831220328 79 332 1.0 0.0 0.00 0.00 0.00 23 1016.8
20260831215331 78 74 2.0 0.0 0.00 0.00 0.00 22 1016.7
20260831214355 78 12 3.0 0.0 0.00 0.00 0.00 23 1016.7
20260831213357 77 345 2.0 0.0 0.00 0.00 0.00 24 1016.9
20260831212339 77 50 1.0 0.0 0.00 0.00 0.00 26 1017.1
20260831211326 75 36 3.0 0.0 0.00 0.00 0.00 27 1017.7
20260831210349 75 31 3.0 0.0 0.00 0.00 0.00 29 1017.7
20260831205331 74 35 5.0 0.0 0.00 0.00 0.00 29 1017.7
20260831204335 74 74 4.0 0.0 0.00 0.00 0.00 30 1017.7
20260831203358 74 84 5.0 0.0 0.00 0.00 0.00 30 1017.9
20260831202404 73 45 5.0 0.0 0.00 0.00 0.00 32 1018.0
20260831201346 73 70 4.0 0.0 0.00 0.00 0.00 32 1018.2
20260831200350 73 90 3.0 0.0 0.00 0.00 0.00 32 1018.4
20260831195352 73 98 3.0 0.0 0.00 0.00 0.00 32 1018.9
20260831194337 72 349 3.0 0.0 0.00 0.00 0.00 33 1018.3
20260831193325 71 345 1.0 0.0 0.00 0.00 0.00 32 1018.5
20260831192328 71 139 3.0 0.0 0.00 0.00 0.00 32 1018.7
20260831191332 70 150 2.0 0.0 0.00 0.00 0.00 33 1019.1
20260831190335 70 103 3.0 0.0 0.00 0.00 0.00 35 1019.1
20260831185322 69 84 2.0 0.0 0.00 0.00 0.00 33 1019.2
20260831184329 69 151 3.0 0.0 0.00 0.00 0.00 34 1019.2
20260831183336 68 165 3.0 0.0 0.00 0.00 0.00 36 1019.4
20260831182338 67 176 3.0 0.0 0.00 0.00 0.00 37 1019.8
20260831181344 66 81 4.0 0.0 0.00 0.00 0.00 37 1020.1
20260831180327 65 61 4.0 0.0 0.00 0.00 0.00 37 1020.6
20260831175331 65 90 4.0 0.0 0.00 0.00 0.00 39 1020.0
20260831174334 64 69 3.0 0.0 0.00 0.00 0.00 37 1020.3
20260831173341 64 117 2.0 0.0 0.00 0.00 0.00 39 1020.5
20260831172405 64 73 2.0 0.0 0.00 0.00 0.00 44 1020.5
20260831171326 63 15 2.0 0.0 0.00 0.00 0.00 44 1020.6
20260831170329 62 102 1.0 0.0 0.00 0.00 0.00 46 1021.0
20260831165336 60 116 1.0 0.0 0.00 0.00 0.00 49 1020.7
20260831164404 59 127 1.0 0.0 0.00 0.00 0.00 52 1020.9
20260831163326 58 92 3.0 0.0 0.00 0.00 0.00 56 1020.4
20260831162329 57 81 2.0 0.0 0.00 0.00 0.00 58 1020.5
20260831161337 56 91 3.0 0.0 0.00 0.00 0.00 60 1020.7
20260831160344 55 94 2.0 0.0 0.00 0.00 0.00 62 1020.7
20260831155327 54 113 2.0 0.0 0.00 0.00 0.00 64 1021.0
20260831154351 53 115 3.0 0.0 0.00 0.00 0.00 66 1021.2
20260831153335 52 113 3.0 0.0 0.00 0.00 0.00 69 1020.6
20260831152338 51 73 4.0 0.0 0.00 0.00 0.00 71 1020.8
20260831151326 49 75 4.0 0.0 0.00 0.00 0.00 74 1020.9
20260831150328 48 111 4.0 0.0 0.00 0.00 0.00 77 1021.3
20260831145332 48 85 5.0 0.0 0.00 0.00 0.00 79 1020.7
20260831144339 47 93 5.0 0.0 0.00 0.00 0.00 81 1020.8
20260831143326 46 90 4.0 0.0 0.00 0.00 0.00 83 1020.9
20260831142328 46 76 3.0 0.0 0.00 0.00 0.00 84 1020.6
20260831141334 44 82 2.0 0.0 0.00 0.00 0.00 84 1021.0
20260831140357 44 42 1.0 0.0 0.00 0.00 0.00 84 1020.1
20260831135324 43 127 3.0 0.0 0.00 0.00 0.00 84 1020.3
20260831134331 42 84 3.0 0.0 0.00 0.00 0.00 84 1020.7
20260831133334 41 82 3.0 0.0 0.00 0.00 0.00 84 1020.5
20260831132338 41 63 0.0 0.0 0.00 0.00 0.00 84 1020.6
20260831131345 40 124 0.0 0.0 0.00 0.00 0.00 84 1019.9
20260831130349 40 124 0.0 0.0 0.00 0.00 0.00 84 1018.6
20260831125336 40 125 0.0 0.0 0.00 0.00 0.00 84 1020.3
20260831124342 41 124 3.0 0.0 0.00 0.00 0.00 84 1019.9
20260831123329 41 152 2.0 0.0 0.00 0.00 0.00 84 1020.1
20260831122336 40 116 2.0 0.0 0.00 0.00 0.00 83 1020.0
20260831121342 41 138 4.0 0.0 0.00 0.00 0.00 83 1019.8
20260831120326 41 169 2.0 0.0 0.00 0.00 0.00 83 1019.7
20260831115359 41 139 3.0 0.0 0.00 0.00 0.00 83 1019.5
20260831114346 41 147 0.0 0.0 0.00 0.00 0.00 83 1019.5
20260831113327 41 148 1.0 0.0 0.00 0.00 0.00 83 1020.3
20260831112331 42 148 2.0 0.0 0.00 0.00 0.00 83 1020.2
20260831111333 42 158 4.0 0.0 0.00 0.00 0.00 83 1020.3
20260831110343 43 160 4.0 0.0 0.00 0.00 0.00 83 1020.0
20260831105326 42 145 5.0 0.0 0.00 0.00 0.00 83 1020.1
20260831104329 42 144 4.0 0.0 0.00 0.00 0.00 83 1020.0
20260831103336 41 150 2.0 0.0 0.00 0.00 0.00 82 1019.2
20260831102343 41 73 2.0 0.0 0.00 0.00 0.00 82 1019.1
20260831101328 41 73 3.0 0.0 0.00 0.00 0.00 81 1019.2
20260831100354 41 98 2.0 0.0 0.00 0.00 0.00 81 1019.0
20260831095357 42 48 1.0 0.0 0.00 0.00 0.00 80 1019.3
20260831094326 43 48 1.0 0.0 0.00 0.00 0.00 80 1019.7
20260831093330 44 169 1.0 0.0 0.00 0.00 0.00 79 1019.7
20260831092333 44 169 2.0 0.0 0.00 0.00 0.00 79 1019.7
20260831091337 45 130 4.0 0.0 0.00 0.00 0.00 80 1019.5
20260831090340 45 105 2.0 0.0 0.00 0.00 0.00 80 1019.4
20260831085328 44 99 2.0 0.0 0.00 0.00 0.00 79 1019.1
20260831084334 44 99 2.0 0.0 0.00 0.00 0.00 78 1018.9
20260831083357 44 50 2.0 0.0 0.00 0.00 0.00 77 1019.0
20260831082341 45 50 2.0 0.0 0.00 0.00 0.00 76 1018.9
20260831081329 45 86 2.0 0.0 0.00 0.00 0.00 74 1018.8
20260831080332 47 171 1.0 0.0 0.00 0.00 0.00 74 1019.3
20260831075335 47 191 3.0 0.0 0.00 0.00 0.00 74 1018.7
20260831074341 47 191 2.0 0.0 0.00 0.00 0.00 72 1018.7
20260831073329 47 118 2.0 0.0 0.00 0.00 0.00 69 1018.6
20260831072335 49 7 1.0 0.0 0.00 0.00 0.00 68 1019.1
20260831071343 49 358 1.0 0.0 0.00 0.00 0.00 66 1019.0
20260831070325 50 100 2.0 0.0 0.00 0.00 0.00 64 1018.7
20260831065332 50 310 3.0 0.0 0.00 0.00 0.00 63 1018.4
20260831064336 50 310 2.0 0.0 0.00 0.00 0.00 64 1018.3